TimeCST,TemperatureF,Dew PointF,Humidity,Sea Level PressureIn,VisibilityMPH,Wind Direction,Wind SpeedMPH,Gust SpeedMPH,PrecipitationIn,Events,Conditions,WindDirDegrees,DateUTC
12:14 AM,21.2,15.8,80,30.00,10.0,SE,5.8,-,N/A,,Clear,130,2013-11-30 06:14:00
12:34 AM,21.2,15.8,80,29.99,10.0,SE,5.8,-,N/A,,Clear,130,2013-11-30 06:34:00
12:53 AM,19.4,15.8,86,29.98,10.0,SE,6.9,-,N/A,,Clear,140,2013-11-30 06:53:00
1:14 AM,19.4,15.8,86,29.98,10.0,SE,4.6,-,N/A,,Clear,140,2013-11-30 07:14:00
1:34 AM,19.4,15.8,86,29.99,10.0,Calm,Calm,-,N/A,,Clear,0,2013-11-30 07:34:00
1:53 AM,17.6,14.0,86,29.99,10.0,Calm,Calm,-,N/A,,Clear,0,2013-11-30 07:53:00
2:13 AM,17.6,14.0,86,29.99,10.0,Calm,Calm,-,N/A,,Clear,0,2013-11-30 08:13:00
2:34 AM,17.6,14.0,86,29.99,10.0,Calm,Calm,-,N/A,,Clear,0,2013-11-30 08:34:00
2:54 AM,17.6,14.0,86,30.00,10.0,Calm,Calm,-,N/A,,Clear,0,2013-11-30 08:54:00
3:13 AM,17.6,14.0,86,29.99,10.0,Calm,Calm,-,N/A,,Clear,0,2013-11-30 09:13:00
3:34 AM,17.6,14.0,86,30.00,10.0,Calm,Calm,-,N/A,,Clear,0,2013-11-30 09:34:00
3:54 AM,17.6,14.0,86,30.00,10.0,Calm,Calm,-,N/A,,Clear,0,2013-11-30 09:54:00
4:13 AM,17.6,15.8,93,30.01,10.0,Calm,Calm,-,N/A,,Clear,0,2013-11-30 10:13:00
4:34 AM,17.6,14.0,86,30.01,10.0,NW,3.5,-,N/A,,Clear,310,2013-11-30 10:34:00
4:54 AM,19.4,15.8,86,30.01,10.0,WNW,4.6,-,N/A,,Clear,290,2013-11-30 10:54:00
5:13 AM,19.4,15.8,86,30.01,10.0,WNW,5.8,-,N/A,,Clear,290,2013-11-30 11:13:00
5:34 AM,19.4,17.6,93,30.01,10.0,WNW,5.8,-,N/A,,Clear,300,2013-11-30 11:34:00
5:54 AM,21.2,17.6,86,30.02,10.0,WNW,6.9,-,N/A,,Clear,300,2013-11-30 11:54:00
6:14 AM,21.2,17.6,86,30.02,10.0,NW,6.9,-,N/A,,Clear,310,2013-11-30 12:14:00
6:34 AM,21.2,17.6,86,30.02,10.0,NW,6.9,-,N/A,,Clear,310,2013-11-30 12:34:00
6:54 AM,23.0,19.4,86,30.03,10.0,NW,8.1,-,N/A,,Clear,310,2013-11-30 12:54:00
7:13 AM,23.0,19.4,86,30.04,10.0,NW,9.2,-,N/A,,Clear,310,2013-11-30 13:13:00
7:34 AM,23.0,19.4,86,30.06,10.0,NW,10.4,-,N/A,,Clear,310,2013-11-30 13:34:00
7:54 AM,24.8,19.4,80,30.06,10.0,NW,11.5,-,N/A,,Clear,320,2013-11-30 13:54:00
8:13 AM,24.8,19.4,80,30.07,10.0,NW,11.5,-,N/A,,Clear,320,2013-11-30 14:13:00
8:34 AM,24.8,19.4,80,30.08,10.0,NW,9.2,-,N/A,,Clear,320,2013-11-30 14:34:00
8:53 AM,26.6,19.4,74,30.08,10.0,NW,8.1,-,N/A,,Clear,320,2013-11-30 14:53:00
9:14 AM,26.6,21.2,80,30.09,10.0,NW,9.2,-,N/A,,Scattered Clouds,320,2013-11-30 15:14:00
9:34 AM,26.6,21.2,80,30.09,10.0,NW,9.2,-,N/A,,Clear,320,2013-11-30 15:34:00
9:53 AM,26.6,21.2,80,30.10,10.0,NW,8.1,-,N/A,,Clear,320,2013-11-30 15:53:00
10:14 AM,28.4,21.2,74,30.10,10.0,NNW,10.4,16.1,N/A,,Clear,340,2013-11-30 16:14:00
10:33 AM,30.2,21.2,69,30.10,10.0,NNW,16.1,-,N/A,,Scattered Clouds,340,2013-11-30 16:33:00
10:54 AM,30.2,21.2,69,30.11,10.0,NW,12.7,-,N/A,,Mostly Cloudy,320,2013-11-30 16:54:00
11:14 AM,32.0,21.2,64,30.10,10.0,North,11.5,17.3,N/A,,Mostly Cloudy,350,2013-11-30 17:14:00
11:33 AM,30.2,21.2,69,30.10,10.0,NNW,9.2,-,N/A,,Scattered Clouds,340,2013-11-30 17:33:00
11:54 AM,30.2,21.2,69,30.10,10.0,North,11.5,-,N/A,,Scattered Clouds,350,2013-11-30 17:54:00
12:14 PM,32.0,21.2,64,30.11,10.0,NNW,11.5,-,N/A,,Scattered Clouds,330,2013-11-30 18:14:00
12:33 PM,30.2,21.2,69,30.11,10.0,NW,12.7,-,N/A,,Mostly Cloudy,310,2013-11-30 18:33:00
12:54 PM,32.0,21.2,64,30.11,10.0,NW,11.5,16.1,N/A,,Mostly Cloudy,310,2013-11-30 18:54:00
1:14 PM,32.0,21.2,64,30.11,10.0,NNW,12.7,-,N/A,,Mostly Cloudy,330,2013-11-30 19:14:00
1:33 PM,32.0,21.2,64,30.10,10.0,NNW,11.5,-,N/A,,Overcast,330,2013-11-30 19:33:00
1:54 PM,32.0,21.2,64,30.10,10.0,NW,10.4,-,N/A,,Overcast,320,2013-11-30 19:54:00
2:14 PM,32.0,21.2,64,30.10,10.0,NW,9.2,-,N/A,,Overcast,320,2013-11-30 20:14:00
2:33 PM,32.0,21.2,64,30.10,10.0,NNW,11.5,-,N/A,,Mostly Cloudy,330,2013-11-30 20:33:00
2:54 PM,33.8,21.2,60,30.10,10.0,NW,11.5,-,N/A,,Scattered Clouds,320,2013-11-30 20:54:00
3:13 PM,33.8,21.2,60,30.10,10.0,NNW,9.2,-,N/A,,Clear,330,2013-11-30 21:13:00
3:34 PM,32.0,21.2,64,30.11,10.0,NNW,10.4,-,N/A,,Clear,340,2013-11-30 21:34:00
3:54 PM,32.0,21.2,64,30.11,10.0,NNW,10.4,-,N/A,,Mostly Cloudy,330,2013-11-30 21:54:00
4:13 PM,30.2,21.2,69,30.12,10.0,NNW,8.1,-,N/A,,Overcast,340,2013-11-30 22:13:00
4:34 PM,30.2,21.2,69,30.13,10.0,NW,5.8,-,N/A,,Overcast,320,2013-11-30 22:34:00
4:54 PM,30.2,21.2,69,30.13,10.0,NNW,6.9,-,N/A,,Mostly Cloudy,330,2013-11-30 22:54:00
5:13 PM,30.2,21.2,69,30.13,10.0,NNW,6.9,-,N/A,,Scattered Clouds,340,2013-11-30 23:13:00
5:34 PM,30.2,21.2,69,30.14,10.0,NNW,5.8,-,N/A,,Scattered Clouds,340,2013-11-30 23:34:00
5:54 PM,28.4,21.2,74,30.15,10.0,NNW,5.8,-,N/A,,Scattered Clouds,340,2013-11-30 23:54:00
6:13 PM,28.4,21.2,74,30.15,10.0,NNW,4.6,-,N/A,,Clear,330,2013-12-01 00:13:00
6:34 PM,28.4,19.4,69,30.15,10.0,North,3.5,-,N/A,,Clear,360,2013-12-01 00:34:00
6:54 PM,26.6,19.4,74,30.16,10.0,North,6.9,-,N/A,,Clear,350,2013-12-01 00:54:00
7:13 PM,26.6,19.4,74,30.16,10.0,NNE,6.9,-,N/A,,Clear,20,2013-12-01 01:13:00
7:34 PM,26.6,19.4,74,30.16,10.0,North,4.6,-,N/A,,Clear,10,2013-12-01 01:34:00
7:54 PM,26.6,19.4,74,30.16,10.0,North,6.9,-,N/A,,Clear,10,2013-12-01 01:54:00
8:13 PM,24.8,19.4,80,30.16,10.0,North,6.9,-,N/A,,Clear,360,2013-12-01 02:13:00
8:34 PM,24.8,19.4,80,30.17,7.0,NNW,4.6,-,N/A,,Clear,340,2013-12-01 02:34:00
8:54 PM,24.8,19.4,80,30.17,7.0,North,4.6,-,N/A,,Scattered Clouds,350,2013-12-01 02:54:00
9:13 PM,24.8,19.4,80,30.18,7.0,Calm,Calm,-,N/A,,Scattered Clouds,0,2013-12-01 03:13:00
9:34 PM,24.8,19.4,80,30.18,7.0,NNW,4.6,-,N/A,,Scattered Clouds,340,2013-12-01 03:34:00
9:54 PM,24.8,19.4,80,30.18,7.0,North,4.6,-,N/A,,Scattered Clouds,360,2013-12-01 03:54:00
10:13 PM,24.8,19.4,80,30.18,7.0,North,5.8,-,N/A,,Scattered Clouds,360,2013-12-01 04:13:00
10:34 PM,24.8,19.4,80,30.19,7.0,North,6.9,-,N/A,,Mostly Cloudy,360,2013-12-01 04:34:00
10:54 PM,24.8,19.4,80,30.20,7.0,North,4.6,-,N/A,,Overcast,350,2013-12-01 04:54:00
11:13 PM,23.0,19.4,86,30.19,7.0,North,5.8,-,N/A,,Overcast,360,2013-12-01 05:13:00
11:34 PM,24.8,19.4,80,30.19,7.0,North,4.6,-,N/A,,Overcast,10,2013-12-01 05:34:00
11:54 PM,23.0,19.4,86,30.19,7.0,North,5.8,-,N/A,,Overcast,10,2013-12-01 05:54:00